| time (UTC) | temp C | wind direction | speed KPH | gust KPH | rain 1hr cm | rain 24hr cm | rain mn cm | humidity % | barometer mb |
| 20260904162116 | 13 | 9 | 0.0 | 4.8 | 0.00 | 1.02 | 0.28 | 95 | 1011.8 |
| 20260904161627 | 12 | 223 | 0.0 | 4.8 | 0.00 | 1.04 | 0.28 | 95 | 1011.9 |
| 20260904161621 | 13 | 10 | 1.6 | 4.8 | 0.00 | 1.02 | 0.28 | 95 | 1011.9 |
| 20260904161115 | 13 | 22 | 1.6 | 4.8 | 0.00 | 1.02 | 0.28 | 95 | 1011.8 |
| 20260904160615 | 13 | 9 | 1.6 | 4.8 | 0.00 | 1.04 | 0.28 | 95 | 1011.8 |
| 20260904155615 | 12 | 22 | 0.0 | 4.8 | 0.00 | 1.04 | 0.28 | 95 | 1011.9 |
| 20260904155112 | 12 | 69 | 1.6 | 4.8 | 0.00 | 1.04 | 0.28 | 95 | 1011.9 |
| 20260904154612 | 12 | 45 | 1.6 | 6.4 | 0.00 | 1.07 | 0.28 | 95 | 1011.8 |
| 20260904154113 | 12 | 123 | 1.6 | 6.4 | 0.00 | 1.12 | 0.28 | 95 | 1011.8 |
| 20260904153613 | 12 | 344 | 1.6 | 6.4 | 0.00 | 1.12 | 0.28 | 95 | 1011.7 |
| 20260904153111 | 12 | 5 | 1.6 | 6.4 | 0.00 | 1.12 | 0.28 | 95 | 1011.7 |
| 20260904152609 | 12 | 22 | 1.6 | 6.4 | 0.00 | 1.14 | 0.28 | 95 | 1011.6 |
| 20260904152110 | 12 | 326 | 1.6 | 6.4 | 0.00 | 1.17 | 0.28 | 95 | 1011.6 |
| 20260904151611 | 12 | 331 | 1.6 | 6.4 | 0.00 | 1.17 | 0.28 | 95 | 1011.5 |
| 20260904151109 | 12 | 22 | 1.6 | 6.4 | 0.00 | 1.17 | 0.28 | 95 | 1011.5 |
| 20260904150608 | 12 | 67 | 0.0 | 4.8 | 0.00 | 1.19 | 0.28 | 95 | 1011.5 |
| 20260904150108 | 12 | 346 | 0.0 | 4.8 | 0.00 | 1.19 | 0.28 | 95 | 1011.4 |
| 20260904145609 | 12 | 333 | 1.6 | 6.4 | 0.00 | 1.22 | 0.28 | 95 | 1011.4 |
| 20260904145107 | 12 | 42 | 1.6 | 6.4 | 0.00 | 1.30 | 0.28 | 95 | 1011.3 |
| 20260904144609 | 12 | 26 | 1.6 | 4.8 | 0.00 | 1.32 | 0.28 | 95 | 1011.3 |
| 20260904144108 | 11 | 172 | 0.0 | 4.8 | 0.00 | 1.37 | 0.28 | 95 | 1011.2 |
| 20260904143609 | 11 | 69 | 0.0 | 4.8 | 0.00 | 1.37 | 0.28 | 95 | 1011.2 |
| 20260904143108 | 11 | 61 | 1.6 | 4.8 | 0.00 | 1.37 | 0.28 | 95 | 1011.2 |
| 20260904142608 | 11 | 16 | 1.6 | 4.8 | 0.00 | 1.37 | 0.28 | 95 | 1011.1 |
| 20260904142109 | 11 | 28 | 0.0 | 4.8 | 0.00 | 1.40 | 0.28 | 95 | 1011.0 |
| 20260904141608 | 11 | 103 | 1.6 | 4.8 | 0.00 | 1.45 | 0.28 | 95 | 1011.0 |
| 20260904141108 | 11 | 350 | 1.6 | 4.8 | 0.00 | 1.47 | 0.28 | 95 | 1010.8 |
| 20260904140607 | 11 | 13 | 0.0 | 4.8 | 0.00 | 1.50 | 0.28 | 95 | 1010.7 |
| 20260904140109 | 11 | 355 | 0.0 | 3.2 | 0.00 | 1.50 | 0.28 | 95 | 1010.7 |
| 20260904135609 | 11 | 13 | 0.0 | 3.2 | 0.00 | 1.50 | 0.28 | 95 | 1010.7 |
| 20260904135108 | 11 | 12 | 0.0 | 4.8 | 0.00 | 1.52 | 0.28 | 95 | 1010.7 |
| 20260904134607 | 11 | 5 | 0.0 | 4.8 | 0.03 | 1.57 | 0.28 | 95 | 1010.7 |
| 20260904134108 | 11 | 5 | 0.0 | 3.2 | 0.03 | 1.57 | 0.28 | 95 | 1010.7 |
| 20260904133608 | 11 | 25 | 1.6 | 4.8 | 0.03 | 1.60 | 0.28 | 95 | 1010.5 |
| 20260904133109 | 11 | 20 | 1.6 | 4.8 | 0.03 | 1.60 | 0.28 | 95 | 1010.4 |
| 20260904132613 | 11 | 26 | 0.0 | 6.4 | 0.03 | 1.60 | 0.28 | 95 | 1010.4 |
| 20260904132609 | 11 | 5 | 1.6 | 4.8 | 0.03 | 1.60 | 0.28 | 95 | 1010.4 |
| 20260904131607 | 11 | 34 | 1.6 | 6.4 | 0.03 | 1.60 | 0.28 | 95 | 1010.3 |
| 20260904131109 | 11 | 0 | 0.0 | 4.8 | 0.03 | 1.60 | 0.28 | 95 | 1010.3 |
| 20260904130607 | 11 | 0 | 1.6 | 6.4 | 0.03 | 1.60 | 0.28 | 95 | 1010.3 |
| 20260904130105 | 11 | 24 | 1.6 | 6.4 | 0.03 | 1.60 | 0.28 | 95 | 1010.3 |
| 20260904125611 | 11 | 173 | 0.0 | 3.2 | 0.03 | 1.60 | 0.25 | 95 | 1010.1 |
| 20260904125605 | 11 | 36 | 1.6 | 6.4 | 0.05 | 1.60 | 0.28 | 95 | 1010.2 |
| 20260904125105 | 11 | 16 | 1.6 | 6.4 | 0.05 | 1.60 | 0.28 | 95 | 1010.2 |
| 20260904124604 | 11 | 178 | 0.0 | 3.2 | 0.03 | 1.60 | 0.25 | 95 | 1010.2 |
| 20260904123603 | 11 | 18 | 0.0 | 3.2 | 0.03 | 1.60 | 0.25 | 95 | 1010.1 |
| 20260904123101 | 11 | 34 | 0.0 | 3.2 | 0.03 | 1.60 | 0.25 | 95 | 1010.1 |
| 20260904122601 | 11 | 28 | 0.0 | 3.2 | 0.03 | 1.60 | 0.25 | 95 | 1010.1 |
| 20260904122103 | 11 | 28 | 0.0 | 3.2 | 0.03 | 1.63 | 0.25 | 95 | 1010.1 |
| 20260904121601 | 11 | 23 | 0.0 | 3.2 | 0.03 | 1.63 | 0.25 | 95 | 1010.1 |
| 20260904121107 | 11 | 22 | 1.6 | 4.8 | 0.03 | 1.65 | 0.25 | 95 | 1010.0 |
| 20260904121101 | 11 | 19 | 0.0 | 4.8 | 0.03 | 1.65 | 0.25 | 95 | 1010.0 |
| 20260904115602 | 11 | 21 | 0.0 | 3.2 | 0.00 | 1.75 | 0.23 | 95 | 1010.0 |
| 20260904115109 | 11 | 13 | 1.6 | 3.2 | 0.00 | 1.91 | 0.23 | 95 | 1009.8 |
| 20260904115101 | 12 | 21 | 0.0 | 3.2 | 0.00 | 1.83 | 0.23 | 95 | 1009.9 |
| 20260904114601 | 11 | 23 | 0.0 | 3.2 | 0.00 | 1.88 | 0.23 | 95 | 1010.0 |
| 20260904114102 | 11 | 17 | 0.0 | 3.2 | 0.00 | 1.88 | 0.23 | 95 | 1009.9 |
| 20260904113101 | 11 | 24 | 0.0 | 3.2 | 0.00 | 1.91 | 0.23 | 95 | 1009.8 |
| 20260904112601 | 11 | 20 | 0.0 | 3.2 | 0.00 | 1.91 | 0.23 | 95 | 1009.7 |
| 20260904112103 | 11 | 349 | 1.6 | 3.2 | 0.00 | 1.91 | 0.23 | 95 | 1009.6 |
| 20260904111603 | 11 | 15 | 0.0 | 4.8 | 0.00 | 1.93 | 0.23 | 95 | 1009.5 |
| 20260904111559 | 11 | 14 | 0.0 | 3.2 | 0.00 | 1.93 | 0.23 | 95 | 1009.6 |
| 20260904111057 | 11 | 17 | 0.0 | 4.8 | 0.00 | 1.93 | 0.23 | 95 | 1009.5 |
| 20260904110059 | 11 | 0 | 0.0 | 3.2 | 0.00 | 1.93 | 0.23 | 95 | 1009.5 |
| 20260904105559 | 12 | 355 | 0.0 | 3.2 | 0.03 | 1.93 | 0.23 | 95 | 1009.5 |
| 20260904105057 | 12 | 99 | 0.0 | 6.4 | 0.03 | 1.93 | 0.23 | 95 | 1009.5 |
| 20260904104600 | 12 | 22 | 0.0 | 6.4 | 0.03 | 1.93 | 0.23 | 95 | 1009.5 |
| 20260904104057 | 12 | 12 | 0.0 | 3.2 | 0.03 | 1.93 | 0.23 | 95 | 1009.5 |
| 20260904103602 | 12 | 106 | 0.0 | 3.2 | 0.03 | 1.93 | 0.23 | 95 | 1009.4 |
| 20260904103557 | 12 | 5 | 0.0 | 3.2 | 0.03 | 1.93 | 0.23 | 95 | 1009.5 |
| 20260904103210 | 12 | 107 | 0.0 | 3.2 | 0.03 | 1.93 | 0.23 | 95 | 1009.4 |
| 20260904102059 | 12 | 109 | 0.0 | 3.2 | 0.03 | 1.93 | 0.23 | 95 | 1009.4 |
| 20260904101603 | 12 | 57 | 0.0 | 3.2 | 0.03 | 1.93 | 0.23 | 95 | 1009.4 |
| 20260904101559 | 12 | 115 | 0.0 | 3.2 | 0.03 | 1.93 | 0.23 | 95 | 1009.4 |
| 20260904100559 | 12 | 43 | 0.0 | 3.2 | 0.05 | 1.93 | 0.23 | 95 | 1009.3 |
| 20260904100555 | 12 | 53 | 0.0 | 3.2 | 0.03 | 1.93 | 0.23 | 95 | 1009.4 |
| 20260904095556 | 12 | 43 | 0.0 | 4.8 | 0.05 | 1.91 | 0.20 | 95 | 1009.3 |
| 20260904095056 | 12 | 44 | 0.0 | 4.8 | 0.05 | 1.91 | 0.20 | 94 | 1009.3 |
| 20260904094555 | 12 | 5 | 0.0 | 3.2 | 0.08 | 1.91 | 0.20 | 94 | 1009.4 |
| 20260904094054 | 12 | 5 | 0.0 | 0.0 | 0.10 | 1.91 | 0.20 | 95 | 1009.4 |
| 20260904093556 | 12 | 5 | 0.0 | 0.0 | 0.13 | 1.91 | 0.20 | 94 | 1009.4 |
| 20260904093054 | 12 | 9 | 0.0 | 0.0 | 0.15 | 1.91 | 0.20 | 94 | 1009.3 |
| 20260904092554 | 12 | 5 | 0.0 | 3.2 | 0.18 | 1.91 | 0.20 | 94 | 1009.3 |
| 20260904092052 | 12 | 5 | 0.0 | 3.2 | 0.20 | 1.91 | 0.20 | 94 | 1009.3 |
| 20260904091553 | 12 | 5 | 0.0 | 3.2 | 0.20 | 1.91 | 0.20 | 94 | 1009.3 |
| 20260904091054 | 12 | 5 | 0.0 | 3.2 | 0.20 | 1.91 | 0.20 | 94 | 1009.3 |
| 20260904090558 | 12 | 5 | 0.0 | 3.2 | 0.18 | 1.88 | 0.18 | 94 | 1009.2 |
| 20260904090553 | 12 | 0 | 0.0 | 3.2 | 0.20 | 1.91 | 0.20 | 95 | 1009.2 |
| 20260904085559 | 12 | 9 | 0.0 | 3.2 | 0.13 | 1.83 | 0.13 | 94 | 1009.2 |
| 20260904085554 | 12 | 9 | 0.0 | 3.2 | 0.15 | 1.85 | 0.15 | 94 | 1009.2 |
| 20260904085055 | 12 | 5 | 0.0 | 3.2 | 0.15 | 1.85 | 0.15 | 94 | 1009.2 |
| 20260904084707 | 12 | 5 | 0.0 | 3.2 | 0.08 | 1.78 | 0.08 | 94 | 1009.3 |
| 20260904084054 | 12 | 5 | 0.0 | 3.2 | 0.10 | 1.80 | 0.10 | 94 | 1009.3 |
| 20260904083053 | 12 | 5 | 0.0 | 3.2 | 0.05 | 1.78 | 0.05 | 94 | 1009.4 |
| 20260904082553 | 12 | 5 | 0.0 | 3.2 | 0.03 | 1.75 | 0.03 | 94 | 1009.3 |
| 20260904082051 | 12 | 355 | 0.0 | 3.2 | 0.00 | 1.73 | 0.03 | 94 | 1009.4 |
| 20260904081556 | 11 | 32 | 0.0 | 4.8 | 0.00 | 1.73 | 0.00 | 94 | 1009.3 |
| 20260904081551 | 11 | 347 | 0.0 | 4.8 | 0.00 | 1.73 | 0.00 | 94 | 1009.3 |
| 20260904080552 | 11 | 180 | 0.0 | 3.2 | 0.00 | 1.73 | 0.00 | 94 | 1009.4 |
| 20260904080050 | 11 | 180 | 0.0 | 3.2 | 0.00 | 1.73 | 0.00 | 94 | 1009.4 |
| 20260904075555 | 12 | 180 | 0.0 | 3.2 | 0.00 | 1.73 | 0.00 | 94 | 1009.4 |
| 20260904075551 | 12 | 180 | 0.0 | 3.2 | 0.00 | 1.73 | 0.00 | 94 | 1009.4 |
| 20260904074549 | 12 | 180 | 0.0 | 3.2 | 0.00 | 1.73 | 0.00 | 94 | 1009.3 |
| 20260904074048 | 12 | 180 | 0.0 | 3.2 | 0.00 | 1.73 | 0.00 | 94 | 1009.3 |
| 20260904073549 | 12 | 180 | 0.0 | 3.2 | 0.00 | 1.73 | 0.00 | 94 | 1009.3 |
| 20260904073049 | 12 | 60 | 0.0 | 3.2 | 0.00 | 1.73 | 0.00 | 94 | 1009.2 |
| 20260904072549 | 12 | 60 | 0.0 | 3.2 | 0.00 | 1.73 | 0.00 | 94 | 1009.2 |
| 20260904072050 | 12 | 60 | 0.0 | 3.2 | 0.00 | 1.73 | 0.00 | 94 | 1009.2 |
| 20260904071549 | 12 | 60 | 0.0 | 3.2 | 0.00 | 1.73 | 0.00 | 94 | 1009.3 |
| 20260904071048 | 12 | 9 | 0.0 | 3.2 | 0.00 | 1.73 | 0.00 | 94 | 1009.2 |
| 20260904070552 | 12 | 5 | 0.0 | 3.2 | 0.00 | 1.73 | 0.00 | 94 | 1009.1 |
| 20260904070548 | 12 | 41 | 0.0 | 3.2 | 0.00 | 1.73 | 0.00 | 94 | 1009.1 |
| 20260904065547 | 12 | 41 | 0.0 | 4.8 | 0.00 | 1.73 | 1.73 | 94 | 1009.2 |
| 20260904065048 | 12 | 37 | 0.0 | 4.8 | 0.00 | 1.73 | 1.73 | 94 | 1009.1 |
| 20260904064547 | 12 | 37 | 0.0 | 4.8 | 0.00 | 1.73 | 1.73 | 94 | 1009.1 |
| 20260904064047 | 12 | 37 | 0.0 | 4.8 | 0.00 | 1.73 | 1.73 | 94 | 1009.1 |
| 20260904063548 | 12 | 136 | 0.0 | 3.2 | 0.00 | 1.73 | 1.73 | 94 | 1009.2 |
| 20260904063047 | 12 | 136 | 0.0 | 3.2 | 0.00 | 1.73 | 1.73 | 94 | 1009.2 |
| 20260904062547 | 12 | 136 | 0.0 | 3.2 | 0.00 | 1.73 | 1.73 | 94 | 1009.2 |
| 20260904062051 | 12 | 136 | 0.0 | 3.2 | 0.00 | 1.73 | 1.73 | 94 | 1009.2 |
| 20260904062045 | 12 | 136 | 0.0 | 3.2 | 0.00 | 1.73 | 1.73 | 94 | 1009.2 |
| 20260904061045 | 12 | 136 | 0.0 | 3.2 | 0.00 | 1.73 | 1.73 | 94 | 1009.2 |
| 20260904060545 | 12 | 137 | 0.0 | 3.2 | 0.00 | 1.73 | 1.73 | 94 | 1009.2 |
| 20260904060045 | 12 | 137 | 0.0 | 3.2 | 0.00 | 1.73 | 1.73 | 94 | 1009.3 |
| 20260904055545 | 12 | 138 | 0.0 | 0.0 | 0.00 | 1.73 | 1.73 | 94 | 1009.3 |
| 20260904055045 | 12 | 138 | 0.0 | 0.0 | 0.00 | 1.73 | 1.73 | 94 | 1009.3 |
| 20260904054544 | 12 | 138 | 0.0 | 0.0 | 0.00 | 1.73 | 1.73 | 94 | 1009.3 |
| 20260904054044 | 12 | 138 | 0.0 | 0.0 | 0.03 | 1.73 | 1.73 | 93 | 1009.3 |
| 20260904053549 | 12 | 138 | 0.0 | 3.2 | 0.05 | 1.73 | 1.73 | 93 | 1009.3 |
| 20260904053543 | 12 | 138 | 0.0 | 3.2 | 0.03 | 1.73 | 1.73 | 93 | 1009.3 |
| 20260904052543 | 12 | 138 | 0.0 | 3.2 | 0.05 | 1.73 | 1.73 | 94 | 1009.3 |
| 20260904052043 | 12 | 138 | 0.0 | 3.2 | 0.08 | 1.73 | 1.73 | 94 | 1009.3 |
| 20260904051543 | 12 | 91 | 0.0 | 3.2 | 0.08 | 1.73 | 1.73 | 94 | 1009.3 |
| 20260904051043 | 12 | 91 | 0.0 | 3.2 | 0.10 | 1.73 | 1.73 | 94 | 1009.4 |
| 20260904050544 | 12 | 90 | 0.0 | 3.2 | 0.10 | 1.73 | 1.73 | 94 | 1009.4 |
| 20260904050040 | 12 | 90 | 0.0 | 3.2 | 0.10 | 1.73 | 1.73 | 94 | 1009.4 |
| 20260904045540 | 12 | 90 | 0.0 | 3.2 | 0.10 | 1.73 | 1.73 | 94 | 1009.3 |
| 20260904045039 | 12 | 90 | 0.0 | 3.2 | 0.13 | 1.73 | 1.73 | 94 | 1009.3 |
| 20260904044539 | 12 | 92 | 0.0 | 3.2 | 0.13 | 1.73 | 1.73 | 93 | 1009.3 |
| 20260904044044 | 12 | 92 | 0.0 | 3.2 | 0.10 | 1.70 | 1.70 | 93 | 1009.3 |
| 20260904044039 | 12 | 92 | 0.0 | 3.2 | 0.10 | 1.70 | 1.70 | 93 | 1009.3 |
| 20260904043040 | 12 | 92 | 0.0 | 6.4 | 0.08 | 1.68 | 1.68 | 93 | 1009.3 |
| 20260904042539 | 12 | 80 | 0.0 | 6.4 | 0.10 | 1.68 | 1.68 | 93 | 1009.3 |
| 20260904042039 | 12 | 166 | 0.0 | 8.0 | 0.08 | 1.65 | 1.65 | 93 | 1009.2 |
| 20260904041540 | 12 | 165 | 0.0 | 8.0 | 0.10 | 1.65 | 1.65 | 93 | 1009.2 |
| 20260904041044 | 12 | 165 | 0.0 | 8.0 | 0.08 | 1.63 | 1.63 | 93 | 1009.2 |
| 20260904041039 | 12 | 165 | 0.0 | 8.0 | 0.08 | 1.63 | 1.63 | 93 | 1009.2 |
| 20260904040039 | 12 | 140 | 0.0 | 8.0 | 0.08 | 1.63 | 1.63 | 93 | 1009.2 |
| 20260904035537 | 12 | 183 | 1.6 | 4.8 | 0.08 | 1.63 | 1.63 | 93 | 1009.2 |
| 20260904035038 | 12 | 176 | 1.6 | 4.8 | 0.05 | 1.60 | 1.60 | 93 | 1009.1 |
| 20260904034537 | 12 | 172 | 1.6 | 6.4 | 0.05 | 1.60 | 1.60 | 93 | 1009.1 |
| 20260904034037 | 12 | 167 | 1.6 | 9.7 | 0.05 | 1.60 | 1.60 | 93 | 1009.0 |
| 20260904033537 | 12 | 173 | 0.0 | 9.7 | 0.05 | 1.60 | 1.60 | 93 | 1009.0 |
| 20260904033039 | 12 | 173 | 0.0 | 4.8 | 0.05 | 1.60 | 1.60 | 93 | 1008.9 |
| 20260904032537 | 12 | 165 | 0.0 | 4.8 | 0.03 | 1.57 | 1.57 | 93 | 1008.9 |
| 20260904032037 | 12 | 175 | 0.0 | 4.8 | 0.03 | 1.57 | 1.57 | 92 | 1008.8 |
| 20260904031537 | 12 | 174 | 1.6 | 4.8 | 0.00 | 1.55 | 1.55 | 92 | 1008.8 |
| 20260904031040 | 12 | 171 | 0.0 | 6.4 | 0.00 | 1.55 | 1.55 | 92 | 1008.8 |
| 20260904031035 | 12 | 178 | 1.6 | 6.4 | 0.00 | 1.55 | 1.55 | 92 | 1008.8 |
| 20260904030035 | 12 | 175 | 0.0 | 4.8 | 0.00 | 1.55 | 1.55 | 92 | 1008.8 |
| 20260904025535 | 12 | 178 | 0.0 | 3.2 | 0.00 | 1.55 | 1.55 | 92 | 1008.8 |
| 20260904025034 | 12 | 159 | 0.0 | 4.8 | 0.00 | 1.55 | 1.55 | 92 | 1008.8 |
| 20260904024532 | 12 | 158 | 0.0 | 6.4 | 0.03 | 1.55 | 1.55 | 92 | 1008.8 |
| 20260904024033 | 12 | 183 | 0.0 | 6.4 | 0.03 | 1.55 | 1.55 | 92 | 1008.8 |
| 20260904023533 | 12 | 158 | 0.0 | 3.2 | 0.03 | 1.55 | 1.55 | 92 | 1008.8 |
| 20260904023036 | 13 | 161 | 0.0 | 6.4 | 0.05 | 1.55 | 1.55 | 92 | 1008.8 |
| 20260904023032 | 12 | 138 | 0.0 | 6.4 | 0.03 | 1.55 | 1.55 | 92 | 1008.8 |
| 20260904022646 | 13 | 161 | 1.6 | 6.4 | 0.10 | 1.55 | 1.55 | 92 | 1008.8 |
| 20260904021530 | 13 | 185 | 1.6 | 6.4 | 0.13 | 1.55 | 1.55 | 92 | 1008.8 |
| 20260904021030 | 13 | 166 | 0.0 | 6.4 | 0.15 | 1.55 | 1.55 | 92 | 1008.7 |
| 20260904020528 | 13 | 144 | 1.6 | 6.4 | 0.15 | 1.55 | 1.55 | 91 | 1008.7 |
| 20260904020027 | 13 | 175 | 1.6 | 6.4 | 0.15 | 1.55 | 1.55 | 91 | 1008.7 |
| 20260904015525 | 13 | 163 | 1.6 | 8.0 | 0.15 | 1.55 | 1.55 | 91 | 1008.7 |
| 20260904015030 | 13 | 179 | 1.6 | 8.0 | 0.13 | 1.52 | 1.55 | 92 | 1008.8 |
| 20260904015025 | 13 | 149 | 1.6 | 8.0 | 0.15 | 1.55 | 1.55 | 92 | 1008.7 |
| 20260904014025 | 13 | 159 | 1.6 | 6.4 | 0.13 | 1.52 | 1.52 | 91 | 1008.8 |
| 20260904013524 | 13 | 180 | 1.6 | 6.4 | 0.13 | 1.52 | 1.52 | 91 | 1008.6 |
| 20260904013022 | 13 | 166 | 1.6 | 8.0 | 0.13 | 1.52 | 1.52 | 90 | 1008.7 |
| 20260904012524 | 13 | 121 | 3.2 | 8.0 | 0.10 | 1.50 | 1.50 | 90 | 1008.6 |
| 20260904012022 | 13 | 182 | 1.6 | 8.0 | 0.05 | 1.45 | 1.45 | 89 | 1008.6 |
| 20260904011522 | 13 | 132 | 3.2 | 12.9 | 0.03 | 1.42 | 1.42 | 89 | 1008.6 |
| 20260904011022 | 14 | 180 | 3.2 | 12.9 | 0.03 | 1.40 | 1.40 | 89 | 1008.6 |
| 20260904010528 | 14 | 157 | 1.6 | 6.4 | 0.08 | 1.40 | 1.40 | 90 | 1008.5 |
| 20260904010522 | 14 | 182 | 1.6 | 12.9 | 0.03 | 1.40 | 1.40 | 89 | 1008.5 |
| 20260904010022 | 14 | 169 | 1.6 | 12.9 | 0.05 | 1.40 | 1.40 | 89 | 1008.5 |
| 20260904005029 | 14 | 129 | 0.0 | 3.2 | 0.13 | 1.40 | 1.40 | 90 | 1008.6 |
| 20260904005022 | 14 | 178 | 1.6 | 6.4 | 0.08 | 1.40 | 1.40 | 90 | 1008.6 |
| 20260904004523 | 14 | 169 | 0.0 | 4.8 | 0.10 | 1.40 | 1.40 | 90 | 1008.6 |
| 20260904004023 | 14 | 189 | 0.0 | 4.8 | 0.10 | 1.40 | 1.40 | 90 | 1008.6 |
| 20260904003028 | 14 | 128 | 0.0 | 3.2 | 0.13 | 1.40 | 1.40 | 91 | 1008.7 |
| 20260904003023 | 14 | 128 | 0.0 | 3.2 | 0.13 | 1.40 | 1.40 | 90 | 1008.6 |
| 20260904002022 | 13 | 128 | 0.0 | 3.2 | 0.13 | 1.40 | 1.40 | 90 | 1008.8 |
| 20260904001523 | 13 | 127 | 0.0 | 3.2 | 0.13 | 1.40 | 1.40 | 89 | 1008.7 |
| 20260904001024 | 13 | 127 | 0.0 | 3.2 | 0.10 | 1.37 | 1.40 | 89 | 1008.8 |
| 20260904000523 | 13 | 127 | 0.0 | 3.2 | 0.10 | 1.37 | 1.37 | 89 | 1008.8 |
| 20260904000023 | 13 | 127 | 0.0 | 3.2 | 0.08 | 1.35 | 1.35 | 88 | 1008.8 |
| 20260903235522 | 14 | 127 | 0.0 | 3.2 | 0.05 | 1.32 | 1.32 | 89 | 1008.9 |
| 20260903235022 | 14 | 117 | 0.0 | 3.2 | 0.05 | 1.32 | 1.32 | 88 | 1008.9 |
| 20260903234523 | 14 | 172 | 0.0 | 4.8 | 0.03 | 1.30 | 1.30 | 88 | 1008.9 |
| 20260903234022 | 14 | 96 | 1.6 | 4.8 | 0.03 | 1.30 | 1.30 | 87 | 1008.9 |
| 20260903233523 | 14 | 170 | 0.0 | 3.2 | 0.00 | 1.27 | 1.27 | 87 | 1008.9 |
| 20260903233022 | 14 | 169 | 1.6 | 4.8 | 0.00 | 1.27 | 1.27 | 87 | 1008.9 |
| 20260903232524 | 14 | 168 | 1.6 | 6.4 | 0.00 | 1.27 | 1.27 | 86 | 1008.9 |
| 20260903232023 | 15 | 142 | 1.6 | 6.4 | 0.00 | 1.27 | 1.27 | 83 | 1008.8 |
| 20260903231522 | 15 | 146 | 1.6 | 8.0 | 0.00 | 1.27 | 1.27 | 83 | 1008.9 |
| 20260903231023 | 15 | 174 | 1.6 | 8.0 | 0.00 | 1.27 | 1.27 | 84 | 1008.8 |
| 20260903230522 | 15 | 167 | 1.6 | 8.0 | 0.00 | 1.27 | 1.27 | 85 | 1008.8 |
| 20260903230028 | 15 | 188 | 1.6 | 9.7 | 0.00 | 1.27 | 1.27 | 86 | 1008.7 |
| 20260903230022 | 15 | 179 | 1.6 | 8.0 | 0.00 | 1.27 | 1.27 | 85 | 1008.7 |
| 20260903225023 | 15 | 166 | 3.2 | 9.7 | 0.00 | 1.30 | 1.27 | 86 | 1008.8 |
| 20260903224522 | 15 | 182 | 3.2 | 9.7 | 0.00 | 1.30 | 1.27 | 89 | 1008.8 |
| 20260903224022 | 15 | 152 | 3.2 | 12.9 | 0.00 | 1.30 | 1.27 | 89 | 1008.9 |
| 20260903223520 | 14 | 186 | 3.2 | 12.9 | 0.00 | 1.30 | 1.27 | 90 | 1009.0 |
| 20260903223020 | 14 | 178 | 1.6 | 6.4 | 0.00 | 1.30 | 1.27 | 90 | 1009.0 |
| 20260903222521 | 13 | 155 | 1.6 | 6.4 | 0.00 | 1.30 | 1.27 | 90 | 1009.1 |
| 20260903222022 | 13 | 153 | 1.6 | 4.8 | 0.00 | 1.30 | 1.27 | 89 | 1009.2 |
| 20260903221519 | 13 | 108 | 1.6 | 4.8 | 0.00 | 1.30 | 1.27 | 89 | 1009.2 |
| 20260903221018 | 13 | 134 | 1.6 | 6.4 | 0.00 | 1.30 | 1.27 | 89 | 1009.2 |
| 20260903220518 | 13 | 159 | 0.0 | 6.4 | 0.00 | 1.30 | 1.27 | 89 | 1009.2 |
| 20260903220018 | 13 | 63 | 0.0 | 6.4 | 0.00 | 1.30 | 1.27 | 89 | 1009.2 |
| 20260903215519 | 13 | 61 | 1.6 | 6.4 | 0.00 | 1.30 | 1.27 | 88 | 1009.2 |
| 20260903215022 | 13 | 202 | 0.0 | 6.4 | 0.00 | 1.30 | 1.27 | 89 | 1009.4 |
| 20260903215018 | 13 | 94 | 1.6 | 4.8 | 0.00 | 1.30 | 1.27 | 89 | 1009.2 |
| 20260903214516 | 13 | 144 | 1.6 | 6.4 | 0.00 | 1.30 | 1.27 | 89 | 1009.3 |
| 20260903213518 | 13 | 170 | 0.0 | 3.2 | 0.00 | 1.30 | 1.27 | 89 | 1009.3 |
| 20260903213514 | 13 | 152 | 0.0 | 3.2 | 0.00 | 1.30 | 1.27 | 88 | 1009.3 |
| 20260903212514 | 13 | 173 | 0.0 | 3.2 | 0.00 | 1.30 | 1.27 | 88 | 1009.4 |
| 20260903212014 | 13 | 164 | 0.0 | 4.8 | 0.00 | 1.30 | 1.27 | 87 | 1009.3 |
| 20260903211517 | 13 | 178 | 0.0 | 4.8 | 0.03 | 1.30 | 1.27 | 89 | 1009.3 |
| 20260903211512 | 13 | 171 | 0.0 | 4.8 | 0.03 | 1.30 | 1.27 | 88 | 1009.1 |
| 20260903210509 | 13 | 171 | 0.0 | 4.8 | 0.03 | 1.30 | 1.27 | 88 | 1009.1 |
| 20260903210008 | 13 | 167 | 1.6 | 6.4 | 0.03 | 1.30 | 1.27 | 89 | 1009.1 |
| 20260903205508 | 13 | 165 | 1.6 | 6.4 | 0.03 | 1.30 | 1.27 | 87 | 1009.2 |
| 20260903205008 | 13 | 170 | 1.6 | 3.2 | 0.03 | 1.30 | 1.27 | 86 | 1009.2 |
| 20260903204508 | 13 | 174 | 0.0 | 3.2 | 0.03 | 1.30 | 1.27 | 87 | 1009.2 |
| 20260903204013 | 13 | 174 | 0.0 | 6.4 | 0.03 | 1.30 | 1.27 | 89 | 1009.4 |
| 20260903204009 | 13 | 174 | 0.0 | 6.4 | 0.03 | 1.30 | 1.27 | 88 | 1009.2 |
| 20260903203507 | 13 | 165 | 3.2 | 9.7 | 0.05 | 1.30 | 1.27 | 86 | 1009.4 |
| 20260903203110 | 13 | 186 | 1.6 | 9.7 | 0.03 | 1.30 | 1.27 | 90 | 1009.4 |
| 20260903202619 | 13 | 188 | 3.2 | 9.7 | 0.05 | 1.30 | 1.27 | 87 | 1009.3 |
| 20260903201506 | 13 | 171 | 1.6 | 8.0 | 0.03 | 1.27 | 1.24 | 88 | 1009.3 |
| 20260903201007 | 13 | 76 | 0.0 | 6.4 | 0.05 | 1.27 | 1.24 | 89 | 1009.3 |
| 20260903200512 | 13 | 148 | 0.0 | 3.2 | 0.08 | 1.27 | 1.24 | 91 | 1009.4 |
| 20260903200506 | 13 | 148 | 0.0 | 3.2 | 0.05 | 1.27 | 1.24 | 90 | 1009.4 |
| 20260903195506 | 13 | 55 | 0.0 | 8.0 | 0.08 | 1.27 | 1.24 | 92 | 1009.4 |
| 20260903195006 | 13 | 175 | 1.6 | 8.0 | 0.10 | 1.30 | 1.24 | 92 | 1009.3 |
| 20260903194508 | 13 | 179 | 1.6 | 6.4 | 0.10 | 1.30 | 1.24 | 93 | 1009.4 |
| 20260903194011 | 13 | 163 | 0.0 | 6.4 | 0.13 | 1.30 | 1.24 | 92 | 1009.3 |
| 20260903194006 | 13 | 187 | 1.6 | 6.4 | 0.10 | 1.30 | 1.24 | 93 | 1009.3 |
| 20260903193005 | 13 | 165 | 0.0 | 4.8 | 0.15 | 1.30 | 1.24 | 92 | 1009.3 |
| 20260903192504 | 13 | 163 | 0.0 | 4.8 | 0.15 | 1.27 | 1.24 | 92 | 1009.4 |
| 20260903192010 | 13 | 171 | 1.6 | 6.4 | 0.18 | 1.27 | 1.22 | 93 | 1009.5 |
| 20260903192004 | 13 | 162 | 0.0 | 4.8 | 0.20 | 1.30 | 1.22 | 92 | 1009.4 |
| 20260903191005 | 13 | 165 | 1.6 | 6.4 | 0.18 | 1.27 | 1.19 | 93 | 1009.5 |
| 20260903190504 | 13 | 169 | 3.2 | 6.4 | 0.18 | 1.27 | 1.19 | 92 | 1009.6 |
| 20260903190004 | 13 | 164 | 1.6 | 8.0 | 0.15 | 1.24 | 1.17 | 92 | 1009.5 |
| 20260903185505 | 13 | 170 | 0.0 | 8.0 | 0.15 | 1.27 | 1.17 | 92 | 1009.5 |
| 20260903185004 | 13 | 167 | 0.0 | 6.4 | 0.13 | 1.24 | 1.14 | 93 | 1009.4 |
| 20260903184502 | 13 | 172 | 1.6 | 6.4 | 0.13 | 1.24 | 1.14 | 92 | 1009.5 |
| 20260903184002 | 13 | 167 | 1.6 | 8.0 | 0.13 | 1.27 | 1.14 | 92 | 1009.6 |
| 20260903183502 | 13 | 161 | 3.2 | 8.0 | 0.10 | 1.24 | 1.12 | 92 | 1009.5 |
| 20260903183008 | 13 | 179 | 1.6 | 6.4 | 0.05 | 1.22 | 1.07 | 92 | 1009.3 |
| 20260903183002 | 13 | 171 | 3.2 | 8.0 | 0.08 | 1.24 | 1.09 | 92 | 1009.4 |
| 20260903182002 | 13 | 190 | 1.6 | 8.0 | 0.03 | 1.17 | 1.04 | 91 | 1009.3 |
| 20260903181503 | 13 | 163 | 1.6 | 9.7 | 0.03 | 1.19 | 1.02 | 91 | 1009.3 |
| 20260903181003 | 13 | 172 | 1.6 | 9.7 | 0.03 | 1.19 | 1.02 | 91 | 1009.2 |
| 20260903180501 | 13 | 115 | 1.6 | 8.0 | 0.03 | 1.19 | 1.02 | 91 | 1009.2 |
| 20260903180002 | 13 | 206 | 1.6 | 8.0 | 0.03 | 1.22 | 1.02 | 91 | 1009.2 |
| 20260903175501 | 13 | 176 | 1.6 | 8.0 | 0.03 | 1.24 | 1.02 | 91 | 1009.2 |
| 20260903175001 | 13 | 198 | 1.6 | 9.7 | 0.03 | 1.27 | 1.02 | 91 | 1009.2 |
| 20260903174500 | 13 | 189 | 1.6 | 9.7 | 0.03 | 1.30 | 1.02 | 90 | 1009.1 |
| 20260903174004 | 13 | 167 | 1.6 | 9.7 | 0.03 | 1.35 | 1.02 | 92 | 1009.2 |
| 20260903174000 | 13 | 163 | 1.6 | 9.7 | 0.03 | 1.32 | 1.02 | 91 | 1009.2 |
| 20260903173613 | 13 | 177 | 3.2 | 14.5 | 0.03 | 1.35 | 1.02 | 91 | 1009.1 |
| 20260903172959 | 13 | 147 | 3.2 | 14.5 | 0.03 | 1.35 | 1.02 | 92 | 1009.1 |
| 20260903172000 | 13 | 227 | 4.8 | 12.9 | 0.00 | 1.32 | 1.02 | 90 | 1009.1 |
| 20260903171500 | 13 | 171 | 4.8 | 14.5 | 0.00 | 1.32 | 0.99 | 90 | 1009.1 |
| 20260903171005 | 14 | 99 | 4.8 | 19.3 | 0.03 | 1.32 | 0.99 | 91 | 1009.1 |
| 20260903171001 | 13 | 178 | 4.8 | 14.5 | 0.00 | 1.32 | 0.99 | 90 | 1009.1 |
| 20260903170613 | 14 | 211 | 3.2 | 19.3 | 0.03 | 1.32 | 0.99 | 92 | 1009.0 |
| 20260903165500 | 13 | 184 | 3.2 | 11.3 | 0.03 | 1.35 | 0.99 | 93 | 1009.0 |
| 20260903165000 | 13 | 163 | 3.2 | 11.3 | 0.05 | 1.35 | 0.99 | 92 | 1009.0 |
| 20260903164457 | 13 | 177 | 3.2 | 11.3 | 0.05 | 1.35 | 0.99 | 92 | 1009.1 |
| 20260903163959 | 13 | 156 | 3.2 | 11.3 | 0.10 | 1.37 | 0.99 | 92 | 1009.1 |
| 20260903163503 | 13 | 170 | 1.6 | 11.3 | 0.10 | 1.37 | 0.99 | 93 | 1009.1 |
| 20260903163458 | 13 | 184 | 3.2 | 11.3 | 0.10 | 1.37 | 0.99 | 93 | 1009.2 |
| 20260903163111 | 13 | 169 | 0.0 | 4.8 | 0.15 | 1.40 | 0.99 | 94 | 1009.3 |
| 20260903162459 | 13 | 173 | 1.6 | 8.0 | 0.13 | 1.37 | 0.99 | 93 | 1009.2 |